AirNav   TITAN Aviation Fuels
 
 1084 users online  

1I9 Delphi Municipal Airport
Delphi, Indiana, USA

GOING TO DELPHI?


FAA INFORMATION EFFECTIVE 15 JULY 2021

Location

FAA Identifier: 1I9
Lat/Long: 40-32-26.9190N 086-40-53.2790W
40-32.448650N 086-40.887983W
40.5408108,-86.6814664
(estimated)
Elevation: 671.1 ft. / 205 m (estimated)
Variation: 02W (1985)
From city: 3 miles S of DELPHI, IN
Time zone: UTC -4 (UTC -5 during Standard Time)
Zip code: 46923

Airport Operations

Airport use: Open to the public
Activation date: 11/1969
Control tower: no
ARTCC: CHICAGO CENTER
FSS: TERRE HAUTE FLIGHT SERVICE STATION
NOTAMs facility: HUF (NOTAM-D service available)
Attendance: IRREG
UNATNDD CHRISTMAS DAY.
Wind indicator: lighted
Segmented circle: no
Lights: ACTVT REIL RWY 18 & 36; MIRL RWY 18/36 - CTAF. PAPI RWY 18 & 36 ON CONSLY.
Beacon: white-green (lighted land airport)
Operates sunset to sunrise.

Airport Communications

CTAF: 122.9
WX AWOS-3P at MCX (11 nm N): 124.05 (574-583-0531)
WX ASOS at LAF (14 nm SW): PHONE 765-743-9687
WX AWOS-3 at FKR (17 nm S): 124.325 (765-654-0328)
WX AWOS-3P at GGP (17 nm NE): 118.5 (574-737-7310)

Nearby radio navigation aids

VOR radial/distance  VOR name  Freq  Var
BVTr092/17.7BOILER VORTAC115.1001E
GUSr257/24.9GRISSOM VORTAC108.4502W
OKKr277/28.4KOKOMO VORTAC113.5005W

 
NDB name  Hdg/Dist  Freq  Var  ID
CRAWFORDSVILLE022/35.338804WCFJ -.-. ..-. .---

Airport Services

Fuel available: 100LL
Parking: tiedowns
Airframe service: MINOR
Powerplant service: MINOR

Runway Information

Runway 18/36

Dimensions: 4001 x 60 ft. / 1220 x 18 m
Surface: concrete, in good condition
Runway edge lights: medium intensity
RUNWAY 18  RUNWAY 36
Latitude: 40-32.778062N40-32.119230N
Longitude: 086-40.891552W086-40.884408W
Elevation: 670.8 ft.671.1 ft.
Traffic pattern: left
ULTRALIGHT USE R TFC PAT.
left
ULTRALIGHT USE R TFC PAT.
Runway heading: 182 magnetic, 180 true002 magnetic, 360 true
Markings: basic, in good conditionbasic, in good condition
Visual slope indicator: 2-light PAPI on left (3.00 degrees glide path)2-light PAPI on left (3.00 degrees glide path)
Runway end identifier lights: yesyes
Touchdown point: yes, no lightsyes, no lights

Airport Ownership and Management from official FAA records

Ownership: Publicly-owned
Owner: CITY OF DELPHI
201 S. UNION ST.
DELPHI, IN 46923
Phone 765-564-2097
Manager: ED NAGLE
8296 W DIV LINE RD
DELPHI, IN 46923
Phone 765-564-4291
260 316 4262.

Airport Operational Statistics

Aircraft based on the field: 26
Single engine airplanes: 24
Multi engine airplanes: 1
Jet airplanes: 1
    
Aircraft operations: avg 132/week *
77% local general aviation
23% transient general aviation
* for 12-month period ending 31 December 2019

Additional Remarks

A57-18 APCH SLOPE 20:1 AT DSPLCD THR DUE TO ROAD.
4 FT FENCE 100 FT W OF CNTRLN 200 FT S OF RWY 18 WI PRIM SFC.
FOR CD CTC CHICAGO ARTCC AT 630-906-8921.
A58-18 ROAD 60 FT FM RWY END 1 FT ABOVE RWY.

Instrument Procedures

There are no published instrument procedures at 1I9.

Some nearby airports with instrument procedures:

KMCX - White County Airport (11 nm N)
KLAF - Purdue University Airport (14 nm SW)
KFKR - Frankfort Municipal Airport (17 nm S)
KGGP - Logansport/Cass County Airport (17 nm NE)
KGUS - Grissom Air Reserve Base (25 nm E)
 
Loc | Ops | Rwys | IFR | FBO | Links
Com | Nav | Svcs | Stats | Notes
Area around 1I9 (Delphi Municipal Airport)
 
Road maps at: MapQuest Bing Google
 
Aerial photo
WARNING: Photo may not be current or correct
Aerial photo of 1I9 (Delphi Municipal Airport)
Photo taken 17-Aug-2008

Do you have a better or more recent aerial photo of Delphi Municipal Airport that you would like to share? If so, please send us your photo.

 
Sectional chart

 
Airport distance calculator
Flying to Delphi Municipal Airport? Find the distance to fly.

From to 1I9

Sunrise and sunset
Times for 31-Jul-2021
 Local
(UTC-4)
 Zulu
(UTC)
Morning civil twilight06:1310:13
Sunrise06:4410:44
Sunset21:0201:02
Evening civil twilight21:3301:33

Current date and time
Zulu (UTC)  31-Jul-2021 23:27:14
Local (UTC-4)  31-Jul-2021 19:27:14
 
METAR
KMCX 
11nm N 
312315Z AUTO 29004KT 10SM CLR 24/15 A2997 RMK AO2 T02380148
KLAF 
14nm SW 
312254Z 24006KT 8SM CLR 22/13 A2998 RMK AO2 SLP149 T02220128 $
KFKR 
17nm S 
312315Z AUTO 26007KT 9SM CLR 22/14 A2999 RMK AO2
KGGP 
17nm NE 
312315Z AUTO 27004KT 10SM SCT043 BKN080 23/16 A2998 RMK AO2
TAF
KLAF 
14nm SW 
311720Z 3118/0118 27005KT P6SM SCT050 BKN120 FM311900 25006KT P6SM SCT050 BKN100 FM011200 27005KT 5SM HZ SCT080
NOTAMs
Click for the latest NOTAMs
NOTAMs are issued by the DoD/FAA and will open in a separate window not controlled by AirNav.

 

 
 

FBO, Fuel Providers, and Aircraft Ground Support

  
 Business Name 
 
 Contact 
 
 Services / Description 
 
Fuel Prices
 
Comments
  
Delphi Municipal Airport 765-564-4291
no information available

If you are affiliated with Delphi Municipal Airport and would like to show here your services, contact info, web link, logo, and more, click here
100LL
SS $4.39 
 Updated 28-Jul-2021
 
   1 read write
SS=Self service
Update Fuel Prices
 

Would you like to see your business listed on this page?

 If your business provides an interesting product or service to pilots, flight crews, aircraft, or users of the Delphi Municipal Airport, you should consider listing it here.  To start the listing process, click on the button below
 
Add a business
 

Other Pages about Delphi Municipal Airport

www.delphimunicipalairport.com
 
Update a link
 
Copyright © AirNav, LLC. All rights reserved. Privacy Policy  Contact